Preview of NWS' New Version of Forecast
This preview is not operational and should not be used for support decisions.
Latest weather observations around

Concord, Buchanan Field (KCCR)

Using English Units (Switch to International System of Units)
Date/ Time (PST) Wind (mph) Vis. (mi) Weather Sky Cond. Temp (°F) Rel. Humidity Wind Chill (°F) Heat Index (°F) Pressure Precip. (in)
Air Dwpt 6 hour Altimeter (inHg) Sea level (inHg) 1 hr 3 hr 6 hr
Max Min
Jan 18 11:53 Calm 10 Cloudy OVC060 61 50     67%     30.34        
Jan 18 10:53 Calm 10 Mostly Cloudy BKN070 59 50     72%     30.35        
Jan 18 09:53 Calm 9 Cloudy BKN070 OVC090 56 49     77%     30.34       0
Jan 18 08:53 Calm 8 Mostly Cloudy BKN080 54 50     86%     30.33        
Jan 18 07:53 Calm 9 Mostly Cloudy BKN085 BKN100 53 48     83%     30.31   0    
Jan 18 06:53 Calm 9 Light Rain SCT060 OVC100 52 48     86%     30.31   0 0  
Jan 18 05:53 SSW 3 10 Cloudy OVC075 53 48     83%     30.29        
Jan 18 04:53 ESE 3 10 Cloudy BKN080 OVC100 53 48     83%     30.29        
Jan 18 03:53 Calm 10 Cloudy OVC110 53 48     83%     30.29        
Jan 18 02:53 S 5 10 Partly Cloudy SCT120 53 48     83%     30.29        
Jan 18 01:53 S 7 10 Clear CLR 54 48     80%     30.28        
Jan 18 00:53 S 5 10 Clear CLR 52 47     83%     30.26        
Jan 17 23:53 Calm 10 Partly Cloudy SCT070 52 47     83%     30.26        
Jan 17 22:53 SSE 5 10 Mostly Clear FEW038 FEW075 52 47     83%     30.24        
Jan 17 21:53 SE 3 9 Cloudy OVC035 51 47     86%     30.21        
Jan 17 20:53 ESE 3 9 Mostly Cloudy BKN037 54 48     80%     30.19        
Jan 17 19:53 Calm 10 Mostly Clear FEW032 54 47     77%     30.16        
Jan 17 18:53 SW 10 10 Partly Cloudy SCT037 56 47     72%     30.14        
Jan 17 17:53 S 10 10 Mostly Cloudy SCT028 BKN034 57 48     72%     30.1        
Jan 17 17:05 SSW 7 10 Mostly Cloudy SCT012 BKN034 58 49     72%     30.08        
Jan 17 16:53 S 9 10 Mostly Cloudy SCT008 BKN034 59 48     67%     30.08        
Jan 17 15:53 SSW 9 8 Cloudy FEW025 SCT050 OVC090 59 47     64%     30.07       0
Jan 17 14:53   7 Cloudy FEW025 BKN030 OVC090 60 48     64%     30.06        
Jan 17 13:53 SSW 16 10 Mostly Clear FEW070 60 48     64%     30.04   0    
Jan 17 12:53 WSW 13 5 Haze FEW025 BKN055 OVC080 60 48     64%     30.02   0 0  
Jan 17 11:53 SW 13 9 Cloudy BKN031 OVC090 61 49     64%     30.02        
Jan 17 10:53 S 8 7 Mostly Cloudy FEW040 BKN075 58 50     75%     30.04   0    
Jan 17 09:53 S 7 7 Light Rain OVC060 54 47     77%     30.02   0   0
Jan 17 08:53 SE 6 7 Light Rain BKN030 53 48     83%     29.97   0    
Jan 17 08:37 S 3 7 Light Rain BKN030 53 48     83%     29.97   0    
Jan 17 07:56 W 14 2.5 Rain FEW020 BKN037 OVC046 53 46     77%     29.96   0    
Jan 17 07:53   2.5 Rain SCT020 BKN026 OVC046 53 46     77%     29.96   0    
Jan 17 07:48   2.5 Heavy Rain SCT020 BKN026 OVC036 54 46     77%     29.96   0    
Jan 17 07:39   3 Rain SCT020 BKN029 OVC042 54 47     77%     29.94   0    
Jan 17 06:53 SW 10 9 Light Rain FEW028 BKN049 OVC100 56 49     77%     29.9   0 0  
Jan 17 05:53 S 9 9 Mostly Cloudy SCT032 BKN042 BKN090 58 48     70%     29.89        
Jan 17 04:53 SW 10 10 Mostly Clear FEW035 59 47     64%     29.88        
Jan 17 03:53 SSW 11 10 Mostly Clear FEW035 58 47     67%     29.87       0
Jan 17 02:53 SSW 14 10 Partly Cloudy FEW041 SCT090 58 49     72%     29.86        
Jan 17 01:53   10 Mostly Cloudy FEW034 SCT044 BKN100 59 50     72%     29.83        
Jan 17 00:53 SW 18 10 Mostly Cloudy FEW042 BKN095 59 50     72%     29.82   0 0  
Jan 16 23:53 SSW 15 9 Cloudy FEW024 BKN040 OVC047 59 52     78%     29.8   0    
Jan 16 23:29 SW 15 7 Light Rain SCT025 BKN032 OVC050 60 52     75%     29.79   0    
Jan 16 22:53 SW 16 10 Light Rain BKN024 BKN033 OVC060 60 53     78%     29.79   0    
Jan 16 22:35   8 Light Rain FEW022 BKN027 OVC038 61 54     78%     29.78   0    
Jan 16 21:53 S 15 6 Light Rain SCT024 BKN036 OVC110 61 55     81%     29.73   0   1
Jan 16 20:53 S 11 3 Rain FEW026 SCT033 OVC044 60 55     83%     29.75   0    
Jan 16 20:20 S 14 3 Heavy Rain FEW019 OVC039 60 55     83%     29.75   0    
Jan 16 20:10 S 15 2.5 Heavy Rain FEW025 OVC044 60 55     83%     29.75   0    
Jan 16 19:53 S 16 3 Heavy Rain BKN044 60 55     83%     29.75   0    
Jan 16 18:53 S 23 6 Light Rain FEW029 BKN048 OVC070 62 54     75%     29.73   0 0  
Jan 16 18:00   10 Light Rain SCT027 BKN050 OVC070 62 53     72%     29.73   0    
Jan 16 17:53 S 17 10 Light Rain BKN009 OVC050 62 53     72%     29.73   0    
Jan 16 16:53 S 16 8 Light Rain BKN009 OVC050 61 53     75%     29.76   0    
Jan 16 16:05 S 13 9 Rain BKN009 OVC050 60 53     78%     29.78   0    
Jan 16 15:53 S 13 5 Rain SCT027 BKN038 OVC049 60 53     78%     29.78   0   0
Jan 16 15:36 S 14 3 Rain SCT026 OVC034 59 52     78%     29.79   0    
Jan 16 15:28 S 13 2.5 Rain FEW023 BKN029 OVC034 58 52     81%     29.8   0    
Jan 16 14:53 SSE 11 4 Rain OVC040 58 52     81%     29.8   0    
Jan 16 13:53 S 3 5 Light Rain OVC040 58 52     81%     29.82   0    
Jan 16 12:53 SSE 10 4 Rain BKN040 OVC050 59 50     72%     29.83   0 0  
Jan 16 11:53 Calm 4 Light Rain SCT050 BKN065 OVC080 60 49     67%     29.88   0    
Jan 16 10:53 S 9 10 Light Rain SCT045 OVC060 61 47     60%     29.91   0    
Jan 16 09:53 S 9 10 Mostly Clear FEW060 60 47     62%     29.92       0
Jan 16 08:53 S 11 10 Cloudy BKN049 OVC060 59 47     64%     29.93        
Jan 16 07:53 SSE 6 10 Mostly Clear FEW055 58 48     70%     29.93        
Jan 16 06:53   10 Mostly Clear FEW050 58 49     72%     29.92   0 0  
Jan 16 05:53 S 11 10 Cloudy BKN034 OVC090 57 50     77%     29.93   0    
Jan 16 04:53 S 5 10 Cloudy BKN075 OVC120 56 50     80%     29.91   0    
Jan 16 03:53 Calm 10 Mostly Cloudy SCT025 BKN036 BKN100 57 50     77%     29.91       0
Jan 16 03:35 Calm 10 Mostly Cloudy SCT023 BKN100 56 50     80%     29.92        
Jan 16 02:53 Calm 10 Cloudy OVC021 56 50     80%     29.92        
Jan 16 01:53 Calm 10 Cloudy BKN021 OVC028 55 51     86%     29.91   0    
Jan 16 00:53 SSW 7 4 Light Rain and Fog/Mist BKN020 OVC034 55 51     86%     29.9   0 0  
Jan 16 00:49 SW 7 4 Light Rain SCT020 SCT026 OVC036 55 50     82%     29.9   0    
Jan 16 00:09 SSE 7 10 Cloudy BKN022 OVC030 56 50     80%     29.9        
Jan 15 23:53 S 6 10 Partly Cloudy FEW024 SCT029 55 50     83%     29.9   0    
Jan 15 23:41 SSE 7 10 Partly Cloudy SCT019 55 50     83%     29.9   0    
Jan 15 23:19 S 7 6 Light Rain BKN019 BKN025 OVC033 55 50     83%     29.89   0    
Jan 15 22:53 SSW 6 10 Light Rain FEW030 OVC036 55 50     83%     29.89   0    
Jan 15 22:43 SSW 7 5 Light Rain FEW025 BKN036 OVC044 55 50     83%     29.88   0    
Jan 15 21:53 SSW 8 10 Cloudy BKN020 OVC026 56 50     80%     29.86   0   0
Jan 15 21:13 S 13 10 Light Rain BKN021 BKN026 OVC034 56 50     80%     29.82   0    
Jan 15 20:53 SSW 11 10 Cloudy SCT024 BKN030 OVC035 57 49     74%     29.8   0    
Jan 15 20:12 S 9 8 Light Rain FEW014 OVC022 54 50     86%     29.76   0    
Jan 15 20:00 SSE 7 4 Light Rain and Fog/Mist BKN014 BKN020 OVC027 53 49     86%     29.75   0    
Jan 15 19:53 SSE 7 2.5 Light Rain and Fog/Mist BKN014 BKN020 OVC030 52 49     89%     29.74   0    
Jan 15 19:21 Calm 2.5 Light Rain and Fog/Mist FEW011 OVC018 51 48     89%     29.72   0    
Jan 15 19:11 Calm 2 Light Rain and Fog/Mist BKN013 OVC020 51 48     89%     29.72   0    
Jan 15 19:03 Calm 1.5 Rain and Fog/Mist SCT012 BKN020 OVC026 51 48     89%     29.72   0    
Jan 15 18:53 Calm 2 Light Rain and Fog/Mist SCT011 BKN022 OVC029 51 48     89%     29.71   0 0  
Jan 15 18:34 Calm 2 Light Rain and Fog/Mist FEW013 OVC028 51 48     89%     29.71   0    
Jan 15 17:53 SE 3 5 Light Rain and Fog/Mist FEW018 OVC042 51 47     86%     29.7   0    
Jan 15 16:53 ESE 13 10 Light Rain BKN060 OVC070 53 45     74%     29.69   0    
Jan 15 15:53 E 7 8 Light Rain FEW028 BKN070 OVC080 52 45     77%     29.7   0   0
Jan 15 14:53 E 13 7 Light Rain OVC038 51 45     79%     29.72   0    
Jan 15 13:53 E 9 6 Light Rain OVC070 51 45     79%     29.74   0    
Jan 15 12:53 E 9 10 Light Rain OVC065 52 45     77%     29.77   0 0  
May 15 01:49 W 6 10 Mostly Cloudy BKN020 55 48     77%     29.99        
May 14 19:53 SW 15 10 Clear CLR 59 48     67%     29.96        
May 14 17:53 W 18 10 Clear CLR 64 48     56%     29.94        
May 14 15:53   10 Clear CLR 66 48     52%     29.96        
May 14 14:53 WSW 20 10 Mostly Clear and Windy FEW026 66 49     54%     29.98        
May 14 04:53 WSW 10 10 Cloudy OVC016 55 47     74%     29.99        
May 12 13:53   10 Clear   79 47     32%   78 29.84        
May 11 18:53   10 Clear CLR 83 32     16%   80 29.73        
Jun 12 06:53 SSW 8 10 Clear CLR 56 49     77%     30.05        
Jun 11 17:53   10 Mostly Cloudy SCT046 BKN085 65 44     47%     29.94        
Jun 11 16:53 W 17 10 Clear CLR 69 43     39%     29.91        
Jun 10 19:53 WNW 16 10 Mostly Clear FEW037 64 47     54%     29.92        
Jun 10 13:53 WNW 16 10 Partly Cloudy SCT040 73 43     34%   72 29.94        
Jun 10 07:53   10 Clear CLR 60 44     55%     29.95        
Jun 09 20:53 SW 11 10 Clear CLR 61 45     56%     29.95        
Jun 09 09:06 W 10 10 Cloudy BKN019 OVC029 63 57     81%     29.94        
Jun 09 04:53 SSW 3 10 Cloudy OVC029 62 57     84%     29.94       0
Jun 09 01:53 WSW 8 10 Cloudy FEW011 OVC025 62 58     86%     29.96     0  
Jun 08 20:53 WNW 5 10 Cloudy OVC035 64 59     84%     29.98        
Jun 08 10:00 SSW 9 10 Cloudy OVC029 63 47     56%     30.01        
Jun 07 06:53   10 Mostly Clear FEW012 56 51     84%     29.89